�������l�o���
Date,Time,MP-1(��Sv/h),MP-2(��Sv/h),MP-3(��Sv/h),MP-4(��Sv/h),MP-5(��Sv/h),MP-6(��Sv/h),MP-7(��Sv/h),MP-8(��Sv/h),����,����(m/s),���J
2018/04/21,00:00,0.857,1.421,0.884,1.636,1.137,0.480,0.846,0.810,��쓌,2.5,��
2018/04/21,00:10,0.854,1.420,0.884,1.635,1.133,0.482,0.845,0.811,��쓌,2.3,��
2018/04/21,00:20,0.854,1.421,0.884,1.633,1.132,0.481,0.845,0.810,��쓌,2.6,��
2018/04/21,00:30,0.855,1.418,0.882,1.635,1.133,0.480,0.846,0.810,��,3.2,��
2018/04/21,00:40,0.856,1.418,0.883,1.635,1.132,0.480,0.846,0.809,��,4.7,��
2018/04/21,00:50,0.855,1.420,0.884,1.634,1.134,0.480,0.846,0.809,��,3.8,��
2018/04/21,01:00,0.855,1.417,0.883,1.633,1.132,0.481,0.845,0.809,��,6.8,��
2018/04/21,01:10,0.855,1.419,0.883,1.634,1.131,0.480,0.845,0.810,��,7.6,��
2018/04/21,01:20,0.857,1.417,0.882,1.631,1.133,0.481,0.845,0.812,��,7.5,��
2018/04/21,01:30,0.852,1.420,0.884,1.637,1.131,0.480,0.846,0.810,��,7.5,��
2018/04/21,01:40,0.855,1.418,0.883,1.634,1.135,0.481,0.845,0.809,��,7.7,��
2018/04/21,01:50,0.855,1.422,0.886,1.633,1.134,0.480,0.844,0.809,��,7.9,��
2018/04/21,02:00,0.856,1.419,0.883,1.636,1.136,0.480,0.846,0.810,��,7.5,��
2018/04/21,02:10,0.856,1.421,0.883,1.635,1.135,0.480,0.845,0.810,��,6.8,��
2018/04/21,02:20,0.855,1.416,0.883,1.634,1.131,0.480,0.846,0.811,��쐼,5.2,��
2018/04/21,02:30,0.855,1.417,0.884,1.636,1.132,0.480,0.847,0.810,��,5.2,��
2018/04/21,02:40,0.853,1.419,0.885,1.636,1.134,0.482,0.846,0.809,��,5.7,��
2018/04/21,02:50,0.853,1.420,0.883,1.635,1.129,0.480,0.846,0.810,��,6.1,��
2018/04/21,03:00,0.855,1.418,0.884,1.635,1.135,0.481,0.848,0.809,��,6.2,��
2018/04/21,03:10,0.853,1.421,0.884,1.637,1.133,0.479,0.847,0.811,��,6.6,��
2018/04/21,03:20,0.856,1.419,0.884,1.635,1.132,0.480,0.848,0.809,��쐼,6.4,��
2018/04/21,03:30,0.855,1.420,0.884,1.633,1.132,0.480,0.847,0.809,��,6.1,��
2018/04/21,03:40,0.855,1.417,0.884,1.636,1.133,0.480,0.846,0.811,��,5.8,��
2018/04/21,03:50,0.855,1.418,0.884,1.634,1.131,0.483,0.847,0.810,��쐼,5.2,��
2018/04/21,04:00,0.855,1.421,0.883,1.636,1.132,0.480,0.846,0.809,��쐼,4.8,��
2018/04/21,04:10,0.854,1.417,0.885,1.632,1.132,0.480,0.848,0.812,��쐼,5.2,��
2018/04/21,04:20,0.855,1.420,0.884,1.632,1.130,0.482,0.848,0.809,��,5.3,��
2018/04/21,04:30,0.855,1.416,0.883,1.636,1.133,0.482,0.847,0.811,��쐼,6.0,��
2018/04/21,04:40,0.853,1.416,0.883,1.635,1.131,0.480,0.847,0.810,��쐼,5.7,��
2018/04/21,04:50,0.853,1.418,0.884,1.634,1.131,0.481,0.847,0.810,��,5.8,��
2018/04/21,05:00,0.854,1.420,0.882,1.632,1.130,0.480,0.845,0.810,��,5.9,��
2018/04/21,05:10,0.854,1.419,0.882,1.631,1.132,0.481,0.847,0.809,��,5.0,��
2018/04/21,05:20,0.852,1.420,0.884,1.634,1.131,0.480,0.845,0.811,��쐼,4.5,��
2018/04/21,05:30,0.853,1.419,0.883,1.633,1.129,0.479,0.845,0.811,��,4.3,��
2018/04/21,05:40,0.854,1.418,0.883,1.634,1.132,0.480,0.844,0.810,��,4.7,��
2018/04/21,05:50,0.854,1.419,0.880,1.633,1.132,0.478,0.846,0.809,��,4.3,��
2018/04/21,06:00,0.857,1.418,0.884,1.634,1.132,0.481,0.847,0.807,��,3.9,��
2018/04/21,06:10,0.853,1.422,0.882,1.634,1.131,0.481,0.844,0.810,��쐼,3.6,��
2018/04/21,06:20,0.855,1.421,0.882,1.634,1.132,0.479,0.845,0.809,��쐼,3.9,��
2018/04/21,06:30,0.854,1.420,0.885,1.634,1.132,0.479,0.845,0.811,��쐼,4.2,��
2018/04/21,06:40,0.855,1.420,0.884,1.635,1.133,0.480,0.846,0.811,��쐼,3.7,��
2018/04/21,06:50,0.855,1.423,0.884,1.637,1.134,0.481,0.845,0.812,��쐼,3.5,��
2018/04/21,07:00,0.855,1.422,0.886,1.634,1.137,0.481,0.846,0.811,��쐼,4.3,��
2018/04/21,07:10,0.855,1.423,0.885,1.634,1.134,0.481,0.848,0.812,��쐼,4.2,��
2018/04/21,07:20,0.855,1.422,0.885,1.635,1.133,0.481,0.847,0.809,��,4.1,��
2018/04/21,07:30,0.857,1.421,0.884,1.637,1.132,0.479,0.850,0.811,��,2.9,��
2018/04/21,07:40,0.859,1.423,0.887,1.634,1.134,0.478,0.848,0.811,��,2.6,��
2018/04/21,07:50,0.858,1.421,0.886,1.637,1.135,0.480,0.847,0.811,��쓌,2.3,��
2018/04/21,08:00,0.859,1.418,0.885,1.639,1.135,0.479,0.848,0.810,��쓌,3.8,��
2018/04/21,08:10,0.857,1.419,0.886,1.637,1.135,0.481,0.849,0.813,��쓌,4.4,��
2018/04/21,08:20,0.856,1.421,0.885,1.636,1.135,0.480,0.848,0.812,��쓌,4.3,��
2018/04/21,08:30,0.855,1.419,0.886,1.637,1.133,0.480,0.845,0.810,��쓌,4.4,��
2018/04/21,08:40,0.857,1.420,0.885,1.640,1.135,0.480,0.845,0.808,��쓌,5.0,��
2018/04/21,08:50,0.854,1.421,0.885,1.640,1.134,0.480,0.845,0.808,��쓌,5.8,��
2018/04/21,09:00,0.857,1.421,0.884,1.639,1.134,0.479,0.848,0.808,��쓌,8.3,��
2018/04/21,09:10,0.858,1.419,0.883,1.638,1.135,0.480,0.848,0.810,��,9.3,��
2018/04/21,09:20,0.855,1.421,0.883,1.639,1.133,0.481,0.848,0.809,��,9.1,��
2018/04/21,09:30,0.856,1.421,0.885,1.640,1.134,0.482,0.848,0.808,��,7.6,��
2018/04/21,09:40,0.859,1.424,0.883,1.639,1.134,0.480,0.847,0.809,��,7.6,��
2018/04/21,09:50,0.857,1.424,0.885,1.639,1.136,0.483,0.847,0.809,��,7.2,��
2018/04/21,10:00,0.858,1.426,0.885,1.639,1.140,0.482,0.848,0.810,��쓌,7.7,��
2018/04/21,10:10,0.858,1.427,0.888,1.641,1.138,0.483,0.847,0.809,��쓌,6.9,��
2018/04/21,10:20,0.861,1.426,0.885,1.642,1.140,0.482,0.848,0.809,��,8.2,��
2018/04/21,10:30,0.860,1.427,0.884,1.643,1.140,0.482,0.848,0.810,��쓌,10.0,��
2018/04/21,10:40,0.861,1.430,0.887,1.644,1.139,0.483,0.850,0.810,��,8.0,��
2018/04/21,10:50,0.860,1.430,0.888,1.643,1.140,0.483,0.851,0.810,��,7.1,��
2018/04/21,11:00,0.860,1.429,0.886,1.643,1.142,0.483,0.851,0.811,��쓌,8.4,��
2018/04/21,11:10,0.862,1.430,0.890,1.643,1.142,0.484,0.849,0.809,��,9.1,��
2018/04/21,11:20,0.864,1.433,0.890,1.643,1.141,0.485,0.850,0.812,��쓌,10.0,��
2018/04/21,11:30,0.864,1.436,0.890,1.642,1.142,0.486,0.850,0.812,��쓌,9.6,��
2018/04/21,11:40,0.863,1.436,0.891,1.641,1.144,0.485,0.850,0.811,��쓌,10.2,��
2018/04/21,11:50,0.864,1.436,0.891,1.643,1.145,0.486,0.850,0.810,��쓌,10.2,��
2018/04/21,12:00,0.864,1.436,0.890,1.643,1.143,0.487,0.850,0.811,��쓌,9.0,��
2018/04/21,12:10,0.863,1.437,0.889,1.644,1.145,0.486,0.850,0.812,��,8.1,��
2018/04/21,12:20,0.864,1.435,0.890,1.642,1.146,0.487,0.851,0.812,��,7.7,��
2018/04/21,12:30,0.863,1.435,0.890,1.642,1.145,0.486,0.850,0.811,��쓌,7.5,��
2018/04/21,12:40,0.865,1.436,0.890,1.641,1.147,0.486,0.849,0.812,��쓌,9.0,��
2018/04/21,12:50,0.866,1.436,0.891,1.642,1.144,0.485,0.850,0.810,��쓌,8.8,��
2018/04/21,13:00,0.863,1.435,0.891,1.645,1.147,0.486,0.850,0.812,��쓌,8.5,��
2018/04/21,13:10,0.864,1.437,0.893,1.643,1.145,0.487,0.849,0.812,��쓌,9.5,��
2018/04/21,13:20,0.864,1.438,0.891,1.645,1.149,0.485,0.851,0.812,��,8.3,�L
2018/04/21,13:30,0.866,1.437,0.893,1.647,1.150,0.487,0.851,0.813,��,7.5,��
2018/04/21,13:40,0.867,1.438,0.893,1.648,1.148,0.488,0.850,0.813,��,6.8,��
2018/04/21,13:50,0.865,1.439,0.893,1.649,1.147,0.491,0.852,0.812,��,7.3,��
2018/04/21,14:00,0.868,1.440,0.894,1.649,1.148,0.488,0.853,0.814,��쓌,8.6,��
2018/04/21,14:10,0.868,1.439,0.893,1.648,1.149,0.489,0.853,0.811,��,7.9,��
2018/04/21,14:20,0.869,1.439,0.893,1.649,1.148,0.489,0.852,0.813,��,6.3,��
2018/04/21,14:30,0.868,1.437,0.893,1.652,1.151,0.487,0.853,0.812,��,9.0,��
2018/04/21,14:40,0.867,1.438,0.895,1.651,1.151,0.488,0.854,0.814,��,8.9,��
2018/04/21,14:50,0.867,1.441,0.894,1.649,1.150,0.488,0.853,0.814,��,7.0,��
2018/04/21,15:00,0.867,1.441,0.893,1.646,1.151,0.487,0.853,0.814,��,7.9,��
2018/04/21,15:10,0.865,1.439,0.896,1.649,1.151,0.489,0.854,0.812,��,8.8,��
2018/04/21,15:20,0.867,1.442,0.894,1.647,1.150,0.487,0.854,0.813,��,6.7,��
2018/04/21,15:30,0.866,1.440,0.893,1.649,1.149,0.488,0.852,0.814,��쐼,5.3,��
2018/04/21,15:40,0.865,1.440,0.894,1.651,1.151,0.487,0.850,0.813,��쐼,6.5,��
2018/04/21,15:50,0.868,1.440,0.894,1.648,1.151,0.487,0.852,0.815,��쐼,6.3,��
2018/04/21,16:00,0.868,1.443,0.894,1.649,1.151,0.488,0.854,0.814,��쐼,5.9,��
2018/04/21,16:10,0.869,1.440,0.894,1.650,1.153,0.487,0.853,0.813,��쐼,5.4,��
2018/04/21,16:20,0.868,1.440,0.895,1.653,1.152,0.488,0.852,0.812,��쐼,4.9,��
2018/04/21,16:30,0.870,1.443,0.894,1.650,1.154,0.488,0.853,0.813,��쐼,4.3,��
2018/04/21,16:40,0.868,1.440,0.895,1.649,1.153,0.487,0.853,0.813,��쐼,4.4,��
2018/04/21,16:50,0.868,1.442,0.894,1.651,1.151,0.487,0.853,0.814,��쐼,4.8,��
2018/04/21,17:00,0.867,1.441,0.896,1.650,1.153,0.487,0.854,0.812,��쐼,5.5,��
2018/04/21,17:10,0.869,1.442,0.895,1.649,1.153,0.489,0.852,0.812,��쐼,5.7,��
2018/04/21,17:20,0.870,1.442,0.895,1.650,1.155,0.489,0.851,0.812,��쐼,4.8,��
2018/04/21,17:30,0.868,1.445,0.895,1.649,1.151,0.488,0.851,0.813,�쐼,4.6,��
2018/04/21,17:40,0.868,1.441,0.897,1.651,1.154,0.488,0.850,0.813,�쐼,4.4,��
2018/04/21,17:50,0.868,1.444,0.897,1.652,1.153,0.490,0.852,0.813,�쐼,5.0,��
2018/04/21,18:00,0.868,1.447,0.899,1.649,1.154,0.489,0.851,0.814,�쐼,5.2,��
2018/04/21,18:10,0.867,1.443,0.895,1.652,1.154,0.489,0.851,0.817,�쐼,5.0,��
2018/04/21,18:20,0.869,1.445,0.898,1.653,1.154,0.488,0.850,0.815,�쐼,5.1,��
2018/04/21,18:30,0.873,1.441,0.900,1.650,1.156,0.489,0.853,0.815,�쐼,6.4,��
2018/04/21,18:40,0.871,1.445,0.899,1.649,1.152,0.490,0.854,0.814,�쐼,6.1,��
2018/04/21,18:50,0.870,1.444,0.899,1.651,1.153,0.489,0.852,0.815,�쐼,4.9,��
2018/04/21,19:00,0.872,1.443,0.898,1.654,1.152,0.491,0.854,0.816,�쐼,4.9,��
2018/04/21,19:10,0.873,1.446,0.899,1.653,1.153,0.488,0.854,0.815,��쐼,5.9,��
2018/04/21,19:20,0.870,1.445,0.897,1.654,1.153,0.490,0.855,0.814,�쐼,6.6,��
2018/04/21,19:30,0.872,1.444,0.898,1.655,1.154,0.490,0.855,0.816,�쐼,6.6,��
2018/04/21,19:40,0.870,1.444,0.900,1.654,1.154,0.488,0.854,0.815,�쐼,7.6,��
2018/04/21,19:50,0.870,1.444,0.898,1.656,1.152,0.488,0.856,0.816,�쐼,8.4,��
2018/04/21,20:00,0.871,1.444,0.898,1.651,1.155,0.490,0.856,0.815,���쐼,7.8,��
2018/04/21,20:10,0.870,1.444,0.897,1.655,1.151,0.489,0.856,0.816,�쐼,7.2,��
2018/04/21,20:20,0.869,1.441,0.896,1.656,1.155,0.488,0.856,0.813,�쐼,7.7,��
2018/04/21,20:30,0.871,1.444,0.900,1.652,1.152,0.489,0.853,0.814,���쐼,6.6,��
2018/04/21,20:40,0.870,1.442,0.897,1.654,1.152,0.489,0.856,0.815,���쐼,6.9,��
2018/04/21,20:50,0.869,1.441,0.899,1.654,1.151,0.488,0.854,0.813,���쐼,5.6,��
2018/04/21,21:00,0.871,1.443,0.900,1.652,1.154,0.488,0.854,0.814,���쐼,4.6,��
2018/04/21,21:10,0.868,1.443,0.898,1.655,1.154,0.489,0.852,0.814,��,3.1,��
2018/04/21,21:20,0.869,1.443,0.899,1.655,1.154,0.487,0.853,0.814,��,2.3,��
2018/04/21,21:30,0.869,1.441,0.896,1.652,1.153,0.488,0.852,0.814,��,2.6,��
2018/04/21,21:40,0.868,1.439,0.894,1.654,1.153,0.486,0.852,0.813,��,2.5,��
2018/04/21,21:50,0.871,1.439,0.897,1.651,1.151,0.487,0.853,0.813,���k��,2.3,��
2018/04/21,22:00,0.868,1.440,0.897,1.654,1.152,0.487,0.853,0.814,�쐼,3.3,��
2018/04/21,22:10,0.869,1.439,0.896,1.654,1.154,0.488,0.853,0.814,���쐼,4.8,��
2018/04/21,22:20,0.867,1.438,0.896,1.651,1.151,0.488,0.855,0.815,�쐼,4.8,��
2018/04/21,22:30,0.868,1.443,0.897,1.652,1.153,0.487,0.852,0.816,�쐼,3.2,��
2018/04/21,22:40,0.868,1.442,0.896,1.652,1.152,0.488,0.852,0.812,�쐼,3.6,��
2018/04/21,22:50,0.866,1.441,0.896,1.652,1.150,0.488,0.853,0.813,���쐼,3.6,��
2018/04/21,23:00,0.867,1.437,0.895,1.653,1.153,0.489,0.852,0.814,��,4.7,��
2018/04/21,23:10,0.868,1.438,0.895,1.653,1.151,0.488,0.851,0.814,���쐼,2.8,��
2018/04/21,23:20,0.866,1.440,0.896,1.654,1.149,0.486,0.852,0.813,���k��,3.4,��
2018/04/21,23:30,0.866,1.436,0.894,1.653,1.151,0.487,0.851,0.814,���k��,2.3,��
2018/04/21,23:40,0.866,1.439,0.897,1.652,1.152,0.488,0.851,0.813,���k��,3.4,��
2018/04/21,23:50,0.867,1.439,0.897,1.651,1.153,0.487,0.855,0.813,���k��,4.2,��
